Location: Unspecified
(0.0000°N, 0.0000°E)
Time: 09:16:07
(UTC+00:00)

Courier 1B Rocket - Pass Details

Date: 18 December 2018
Orbit: 920 x 1202 km, 28.3° (Epoch: 17 January)

Event Time Altitude Azimuth Distance (km) Brightness Sun altitude
Rises 01:13:55 0° 212° (SSW) 3,764 - -60.0°
Reaches altitude 10° 01:18:17 10° 187° (S) 2,747 - -59.3°
Maximum altitude 01:21:27 14° 158° (SSE) 2,441 - -58.8°
Drops below altitude 10° 01:24:32 10° 129° (SE) 2,669 - -58.3°
Sets 01:28:38 0° 104° (ESE) 3,575 - -57.6°
